This demonstration page uses our WeatherBlox Daily Observations layout. Learn more.

Left ArrowRight Arrow

Hourly Observations for August 13, 2021

Temp ( °F °C ) Dew Point ( °F °C ) Humidity (%) Winds ( mph kmh ) Pressure ( in mb ) Visibility ( mi km ) Precip ( " mm )
12:15 am 00:15 Clear 67 19.7 66 19.1 96 96 Calm 30.04 1017 10 16 0.00 0.00
12:35 am 00:35 Clear 67 19.5 66 19 97 97 Calm 30.05 1018 10 16 0.00 0.00
12:55 am 00:55 Clear 66 19.1 66 18.8 98 98 Calm 30.04 1017 10 16 0.00 0.00
1:15 am 01:15 Clear 66 18.8 65 18.6 99 99 Calm 30.04 1017 7 11 0.00 0.00
1:35 am 01:35 Clear 66 18.8 65 18.6 99 99 Calm 30.04 1017 7 11 0.00 0.00
1:55 am 01:55 Clear 66 18.8 65 18.6 99 99 Calm 30.04 1017 7 11 0.00 0.00
2:15 am 02:15 Clear 66 18.8 65 18.6 99 99 Calm 30.04 1017 7 11 0.00 0.00
2:35 am 02:35 Clear 66 18.8 65 18.6 99 99 Calm 30.03 1017 10 16 0.00 0.00
2:55 am 02:55 Clear 65 18.5 65 18.3 99 99 Calm 30.03 1017 7 11 0.00 0.00
3:15 am 03:15 Clear 65 18.5 65 18.3 99 99 SSE 3 6 30.04 1017 7 11 0.00 0.00
3:35 am 03:35 Clear 65 18.6 65 18.5 99 99 Calm 30.04 1017 7 11 0.00 0.00
3:55 am 03:55 Clear 65 18.6 65 18.5 99 99 Calm 30.03 1017 7 11 0.00 0.00
4:15 am 04:15 Clear 66 19 66 18.7 98 98 Calm 30.03 1017 7 11 0.00 0.00
4:35 am 04:35 Clear 65 18.5 65 18.3 99 99 Calm 30.04 1017 7 11 0.00 0.00
4:55 am 04:55 Clear 65 18.6 65 18.5 99 99 Calm 30.04 1017 7 11 0.00 0.00
5:15 am 05:15 Clear with Mist and Fog 66 18.7 65 18.5 99 99 Calm 30.03 1017 5 8 0.00 0.00
5:35 am 05:35 Clear with Mist and Fog 66 18.9 66 18.7 99 99 Calm 30.04 1017 5 8 0.00 0.00
5:55 am 05:55 Clear with Mist and Fog 66 19 66 18.9 99 99 Calm 30.04 1017 5 8 0.00 0.00
6:15 am 06:15 Clear 67 19.5 67 19.3 99 99 S 3 6 30.04 1017 7 11 0.00 0.00
6:35 am 06:35 Partly Cloudy 68 20.2 68 19.8 98 98 SSW 3 6 30.04 1017 10 16 0.00 0.00
6:55 am 06:55 Partly Cloudy 69 20.4 68 20 98 98 Calm 30.04 1017 10 16 0.00 0.00
7:15 am 07:15 Cloudy 69 20.6 68 20.2 98 98 W 3 6 30.05 1018 10 16 0.00 0.00
7:35 am 07:35 Partly Cloudy 69 20.7 68 20.1 96 96 W 3 6 30.05 1018 10 16 0.00 0.00
7:55 am 07:55 Partly Cloudy 69 20.8 68 20.1 96 96 WSW 3 6 30.05 1018 10 16 0.00 0.00
8:15 am 08:15 Partly Cloudy 69 20.7 68 20 96 96 Calm 30.05 1018 10 16 0.00 0.00
8:35 am 08:35 Sunny 70 21 69 20.3 96 96 Calm 30.05 1018 10 16 0.00 0.00
8:55 am 08:55 Sunny 71 21.4 69 20.4 94 94 WNW 6 9 30.06 1018 10 16 0.00 0.00
9:15 am 09:15 Sunny 73 22.5 69 20.6 89 89 NW 7 11 30.06 1018 10 16 0.00 0.00
9:35 am 09:35 Sunny 73 22.6 69 20.4 87 87 WNW 5 7 30.06 1018 10 16 0.00 0.00
9:55 am 09:55 Sunny 74 23.1 69 20.5 85 85 NW 3 6 30.07 1018 10 16 0.00 0.00
10:15 am 10:15 Sunny 74 23.5 69 20.5 83 83 Calm 30.06 1018 10 16 0.00 0.00
10:35 am 10:35 Sunny 75 24 69 20.8 82 82 Calm 30.07 1018 10 16 0.00 0.00
10:55 am 10:55 Sunny 76 24.2 69 20.7 81 81 Calm 30.07 1018 10 16 0.00 0.00
11:15 am 11:15 Sunny 76 24.5 69 20.3 78 78 Calm 30.07 1018 10 16 0.00 0.00
11:35 am 11:35 Sunny 77 24.8 69 20.3 76 76 Calm 30.07 1018 10 16 0.00 0.00
11:55 am 11:55 Sunny 78 25.4 69 20.6 75 75 WSW 3 6 30.08 1019 10 16 0.00 0.00
12:15 pm 12:15 Sunny 78 25.8 70 21 75 75 WSW 5 7 30.08 1019 10 16 0.00 0.00
12:35 pm 12:35 Sunny 79 26.1 70 21.1 74 74 WSW 7 11 30.09 1019 10 16 0.00 0.00
12:55 pm 12:55 Sunny 79 26.1 71 21.7 77 77 SW 5 7 30.08 1018 10 16 0.00 0.00
1:15 pm 13:15 Sunny 78 25.8 70 20.9 74 74 WSW 5 7 30.08 1019 10 16 0.00 0.00
1:35 pm 13:35 Partly Cloudy 79 26 71 21.6 77 77 SSW 5 7 30.08 1019 10 16 0.00 0.00
1:55 pm 13:55 Cloudy 79 26 71 21.7 77 77 SW 3 6 30.08 1019 10 16 0.00 0.00
2:15 pm 14:15 Cloudy 78 25.7 70 21.2 76 76 SW 6 9 30.08 1019 10 16 0.00 0.00
2:35 pm 14:35 Cloudy 78 25.8 70 21.2 76 76 WSW 6 9 30.08 1019 10 16 0.00 0.00
2:55 pm 14:55 Cloudy 79 26 70 21.2 75 75 SW 3 6 30.08 1019 10 16 0.00 0.00
3:15 pm 15:15 Mostly Cloudy 79 26.3 71 21.8 76 76 SW 7 11 30.07 1018 10 16 0.00 0.00
3:35 pm 15:35 Partly Cloudy 80 26.8 70 21.1 71 71 W 7 11 30.06 1018 10 16 0.00 0.00
3:55 pm 15:55 Mostly Cloudy 80 26.9 70 21.2 71 71 W 9 15 30.05 1018 10 16 0.00 0.00
4:15 pm 16:15 Cloudy 83 28.1 68 19.8 61 61 W 7 11 30.04 1017 10 16 0.00 0.00
4:35 pm 16:35 Partly Cloudy 83 28.2 69 20.6 63 63 W 12 19 30.03 1017 10 16 0.00 0.00
4:55 pm 16:55 Sunny 83 28.3 69 20.8 64 64 W 15 24 30.03 1017 10 16 0.00 0.00
5:15 pm 17:15 Sunny 83 28.2 70 21.2 66 66 W 10 17 30.03 1017 10 16 0.00 0.00
5:35 pm 17:35 Partly Cloudy 83 28.4 71 21.8 67 67 W 7 11 30.02 1017 10 16 0.00 0.00
5:55 pm 17:55 Partly Cloudy 81 27 71 21.5 72 72 W 6 9 30.03 1017 10 16 0.00 0.00
6:15 pm 18:15 Sunny 81 27 71 21.5 72 72 WSW 8 13 30.03 1017 10 16 0.00 0.00
6:35 pm 18:35 Partly Cloudy with Light Rain 80 26.7 71 21.7 74 74 NW 6 9 30.03 1017 10 16 0.00 0.00
6:55 pm 18:55 Partly Cloudy 78 25.5 69 20.4 73 73 NW 9 15 30.05 1018 10 16 0.00 0.00
7:15 pm 19:15 Mostly Cloudy 75 23.7 67 19.4 77 77 N 8 13 30.07 1018 10 16 0.00 0.00
7:35 pm 19:35 Mostly Cloudy 73 22.5 67 19.4 83 83 NNW 3 6 30.08 1019 10 16 0.00 0.00
7:55 pm 19:55 Sunny 72 22.4 67 19.5 84 84 NW 3 6 30.08 1019 10 16 0.00 0.00
8:15 pm 20:15 Partly Cloudy with Light Rain 72 22 67 19.6 86 86 NW 5 7 30.08 1019 10 16 0.00 0.00
8:35 pm 20:35 Partly Cloudy 71 21.5 67 19.7 90 90 Calm 30.09 1019 10 16 0.01 0.25
8:55 pm 20:55 Clear 70 21 68 20 94 94 Calm 30.09 1019 10 16 0.01 0.25
9:15 pm 21:15 Clear 69 20.7 68 19.9 95 95 Calm 30.09 1019 10 16 0.00 0.00
9:35 pm 21:35 Partly Cloudy 69 20.7 68 20 96 96 Calm 30.09 1019 10 16 0.00 0.00
9:55 pm 21:55 Clear 69 20.5 68 20 97 97 Calm 30.10 1019 10 16 0.00 0.00
10:15 pm 22:15 Clear 68 20.2 67 19.7 97 97 Calm 30.11 1019 10 16 0.00 0.00
10:35 pm 22:35 Partly Cloudy 68 20.1 67 19.7 98 98 Calm 30.12 1020 10 16 0.00 0.00
10:55 pm 22:55 Partly Cloudy 68 20 67 19.6 98 98 Calm 30.12 1020 10 16 0.00 0.00
11:15 pm 23:15 Partly Cloudy 68 20 67 19.7 98 98 NNW 3 6 30.12 1020 7 11 0.00 0.00
11:35 pm 23:35 Cloudy 69 20.4 68 20 98 98 N 3 6 30.11 1020 10 16 0.00 0.00
11:55 pm 23:55 Cloudy 69 20.7 67 19.7 94 94 N 5 7 30.12 1020 10 16 0.00 0.00

Powered by AerisWeather